www.pogodaiklimat.ru

Погода и климат >> Архив погоды >> Россия >> Краснодарский край >> Магри


ПОГОДА в Магри

  • Прогноз погоды в Магри
  • Монитор погоды в Магри

АРХИВ ПОГОДЫ в Магри

Время (UTC), дата Ветер
(напр.,м/с)
 
Видим.   Явления Облачность Т
(С)
Тd
(С)
f
(%)
Тe
(С)
Тes
(С)
Комфортность P
(гПа)
Po
(гПа)
Тmin
(С)
Tmax
(С)
R
(мм)
R24
(мм)
S
(см)
03 14.01 ЮВ 1 н/о н/о +5.5 +5.5 100 +4 +4 1008.2 1001.9 +2.4 2
09 14.01 ЮВ 3 н/о н/о +7.2 +6.7 97 +4 +4 1007.1 1000.9
03 15.01 ЮВ 4
{12}
н/о н/о +10.0 +3.1 62 +8 +8 1007.0 1000.8 +10.6
06 15.01 ЮВ 5-11
{12}
н/о н/о +11.0 +2.2 55 +9 +9 1007.2 1001.0 +8.5
09 15.01 ЮВ 6-11
{14}
н/о н/о +11.1 +3.9 61 +8 +8 1007.1 1000.9
12 15.01 ЮВ 4
{12}
н/о н/о +11.7 +4.3 60 +10 +10 1004.4 998.2
15 15.01 ЮВ 3 н/о н/о +13.1 +2.1 47 +12 +12 1001.9 995.8 +12.8 1
18 15.01 ЮВ 4-11
{14}
н/о н/о +11.6 +5.0 64 +10 +10 1001.4 995.3
21 15.01 ЮВ 4-10
{18}
н/о н/о +13.3 +3.0 50 +12 +12 997.8 991.7
00 16.01 Ю 9-16
{20}
н/о н/о +14.4 +4.1 50 +12 +12 998.7 992.7
03 16.01 ЮВ 7-12
{17}
н/о н/о +12.4 +6.6 68 +10 +10 999.4 993.3 +9.2 6
06 16.01 СВ 1
{15}
н/о н/о +7.9 +4.3 78 +7 +7 1004.3 998.0 +7.9
15 16.01 С 1 н/о н/о +2.6 -6.6 51 +2 +2 1012.2 1005.8 +12.9 0.3
18 16.01 СЗ 2 н/о н/о +2.3 -9.2 42 0 0 1012.8 1006.4
21 16.01 штиль 0 н/о н/о +1.1 -7.3 53 +1 +1 1013.9 1007.4
00 17.01 СЗ 1 н/о н/о -2.0 -6.4 72 -4 -4 1014.8 1008.2
06 17.01 СЗ 1 н/о н/о -1.5 -3.9 84 -4 -4 1017.5 1011.0 -2.2
09 17.01 Ю 2 н/о н/о +6.5 -4.8 44 +5 +5 1018.2 1011.8
12 17.01 Ю 2 н/о н/о +7.0 -1.5 55 +5 +5 1018.7 1012.4
15 17.01 СЗ 1 н/о н/о +1.5 -1.2 82 -0 -0 1021.0 1014.5 +7.2
18 17.01 С 1 н/о н/о -1.0 -1.0 100 -3 -3 1022.9 1016.3
21 17.01 СЗ 1 н/о н/о -1.0 -1.0 100 -3 -3 1024.3 1017.7
00 18.01 штиль 0 н/о н/о +0.3 +0.3 100 -1 -1 1025.0 1018.5
03 18.01 штиль 0 н/о н/о +0.1 +0.1 100 -1 -1 1025.1 1018.6 -1.1
06 18.01 ЮВ 2 н/о н/о +4.9 -2.2 60 +3 +3 1025.7 1019.3
09 18.01 ЮВ 4 н/о н/о +7.3 -1.8 52 +4 +4 1026.2 1019.8
12 18.01 ЮВ 4 н/о н/о +7.4 +0.8 63 +4 +4 1025.1 1018.7
15 18.01 ЮВ 4 н/о н/о +7.2 +0.2 61 +4 +4 1025.0 1018.6 +8.0
18 18.01 ЮВ 1 н/о н/о +4.9 -1.4 64 +4 +4 1025.3 1018.8
21 18.01 ЮВ 1 н/о н/о +4.3 -1.6 65 +3 +3 1024.8 1018.3
00 19.01 ЮВ 2 н/о н/о +5.7 +0.1 67 +4 +4 1024.0 1017.6
03 19.01 ЮВ 1 н/о н/о +4.2 -0.3 72 +3 +3 1023.3 1016.8 +3.5
06 19.01 ЮВ 3 н/о н/о +6.3 -0.5 62 +4 +4 1023.4 1017.0 +3.1
09 19.01 ЮВ 3 н/о н/о +7.8 +0.4 59 +5 +5 1024.2 1017.8
12 19.01 ЮВ 4 н/о н/о +7.9 +1.0 62 +5 +5 1023.4 1017.1
15 19.01 ЮВ 3 н/о н/о +7.9 +1.5 64 +5 +5 1024.0 1017.7 +8.3
18 19.01 ЮВ 3 н/о н/о +7.5 +1.4 65 +5 +5 1024.3 1017.9
00 20.01 ЮВ 4 н/о н/о +6.8 -1.4 56 +4 +4 1025.4 1019.0

 

Местоположение метеостанции Магри (Краснодарский край, Россия): широта 44.02 долгота 39.16 высота над уровнем моря 32 м.

В архиве по умолчанию представлена погода в Магри за последнюю неделю. Архивные данные за месяц целиком и за предыдущие месяцы, начиная с января 2011 года, Вы можете получить, выбрав интересующий диапазон дат из раскрывающегося списка и нажав кнопку "Ввод!".


*Определитесь, кто Вы:
робот инопланетянин человек

Внимание! Время в таблицах - всемирное. Для получения местного времени необходимо прибавить поправку, которая равна 3 ч.

Смотрите также архив погоды в соседних городах и на ближайших метеорологических станциях:

Погода в Туапсе (Краснодарский край, Россия) (11 км)
Погода в Лазаревском (Краснодарский край, Россия) (19 км)
Погода в Горном (Краснодарский край, Россия) (30 км)
Погода в Кичмае (Краснодарский край, Россия) (35 км)
Погода в Солох Ауле (Краснодарский край, Россия) (45 км)
Погода в Джубге (Краснодарский край, Россия) (49 км)
Погода в Горячем Ключе (Краснодарский край, Россия) (68 км)
Погода в Сочи (Краснодарский край, Россия) (69 км)
Погода в Гузерипле (Адыгея, Россия) (78 км)
Погода в Кепше (Краснодарский край, Россия) (84 км)

Пояснения к столбцам:

Ветер - указаны скорость ветра в м/с - средняя за 10 мин, порывы в срок и между сроками (в фигурных скобках) и направление, откуда дует ветер: С - северный, СВ - северо-восточный, В - восточный, ЮВ - юго-восточный, Ю - южный, ЮЗ - юго-западный, З - западный, СЗ - северо-западный.
Видимость - горизонтальная дальность видимости в метрах или километрах. При видимости от 1 до 10 км при отсутствии осадков обычно наблюдается дымка, при ухудшении видимости до 1 км и менее - туман. В сухую погоду видимость может ухудшаться дымом, пылью или мглою.
Явления - указаны атмосферные явления, наблюдавшиеся в срок или в последний час перед сроком; фигурными скобками обозначены явления, наблюдавшиеся между сроками (за 1-3 часа до срока); квадратными скобками обозначены град или гололедные отложения с указанием их диаметра в мм.
Облачность - указаны через наклонную черту общая и нижняя облачность в баллах и высота нижней границы облаков в метрах; квадратными скобками обозначены формы облаков: Ci - перистые, Cs - перисто-слоистые, Cc - перисто-кучевые, Ac - высококучевые, As - высокослоистые, Sc - слоисто-кучевые, Ns - слоисто-дождевые, Cu - кучевые, Cb - кучево-дождевые. Подробнее классификацию облаков см. в Атласе облаков (PDF).
T - Температура воздуха - температура, измеренная на высоте 2 м над землей.
Td - Температура точки росы - температура, при понижении до которой содержащийся в воздухе водяной пар достигнет насыщения.
f - Относительная влажность воздуха - влажноcть воздуха, измеренная на высоте 2 м над землей.
Te - Эффективная температура - температура, которую ощущает одетый по сезону человек в тени. Характеристика душности погоды. При расчете учитывается влияние влажности воздуха и скорости ветра на теплоощущения человека.
Tes - Эффективная температура на солнце - температура, которую ощущает человек, с поправкой на солнечный нагрев. Характеристика знойности погоды. Зависит от высоты солнца над горизонтом, облачности и скорости ветра. Ночью, в пасмурную погоду, а также при ветре 12 м/с и более поправка равна нулю.
P - Атмосферное давление - приведенное к уровню моря атмосферное давление.
Po - Атмосферное давление - измеренное на уровне метеостанции атмосферное давление.
Tmin - Минимальная температура - минимум температуры воздуха на высоте 2 м над землей.
Tmax - Максимальная температура - максимум температуры воздуха на высоте 2 м над землей.
R - Количество осадков - Количество выпавших осадков за период времени, мм. При наведении курсора мыши на число - период времени, за который выпало указанное количество осадков.
R24 - Количество осадков - Количество выпавших осадков за 24 часа, мм.
S - Снежный покров - Высота снежного покрова, см. При наведении курсора мыши на число - состояние снежного покрова и степень покрытия местности в баллах.